RH
64 99 86 62 74 61 69 78 88 88 82 99 84 76 62 58 69 52 43 30 20 17 12 11 9 13 16 18 19 23 24 28 37 38 38 42 44 42 37 31 31 33 35 36 36 34 33 34 33 32 30 32 35 38 45 40 55 85 89 90 99 99 84 69 66 62 57 55 48 49 59 68 75 80 81 86 92 89 86 94 99 96 95 95 91 82 81 92 97 93 86 81 81 92 101 103 90
57 90 92 64 78 76 77 80 80 85 88 88 82 84 66 64 70 52 45 31 22 19 14 12 9 12 14 18 21 24 25 26 30 31 28 30 32 31 30 27 29 31 35 37 35 36 39 43 40 38 33 27 26 24 30 35 38 54 70 76 82 77 59 50 52 54 54 49 46 58 70 76 85 92 92 96 98 100 102 104 106 98 88 90 90 82 88 101 101 100 100 91 80 79 81 82 74
53 77 96 70 71 82 78 80 79 83 103 90 72 88 73 69 71 53 46 32 25 20 16 13 9 11 13 16 22 27 26 27 28 29 26 23 27 27 29 28 31 34 36 39 41 44 47 52 50 45 43 36 32 28 24 27 32 35 42 48 50 48 43 43 44 47 47 46 66 86 91 94 99 95 93 99 98 100 100 101 105 91 73 66 74 81 89 100 91 88 91 78 63 58 57 58 57
55 62 96 87 60 79 87 82 79 75 101 87 64 92 81 73 73 54 46 34 27 22 19 14 10 10 12 15 23 30 27 27 25 27 27 21 25 28 29 31 33 36 38 41 44 48 51 53 56 54 52 51 47 44 40 34 34 34 36 38 38 39 37 39 40 44 52 69 94 102 99 97 95 93 90 88 89 97 99 101 97 84 74 61 72 89 95 93 75 74 83 68 54 57 56 50 54
57 56 90 98 55 66 88 78 76 78 97 80 67 98 82 75 76 53 46 36 28 25 21 15 11 11 10 13 22 31 30 27 23 23 26 21 24 28 30 33 36 39 41 45 47 49 54 54 54 56 56 59 62 60 61 58 54 49 46 42 37 37 38 47 60 67 80 94 101 101 100 94 93 95 85 80 89 97 95 99 96 92 95 86 91 101 101 89 72 78 84 67 57 70 72 68 77
61 71 92 99 62 64 86 71 64 77 99 88 82 98 78 80 77 51 46 37 31 28 24 18 11 11 9 11 19 30 31 27 24 21 24 22 22 27 30 32 36 41 45 49 54 58 65 72 71 68 67 67 70 69 73 77 76 74 69 59 47 47 53 65 81 88 95 98 98 101 102 99 97 89 80 89 101 102 96 99 97 94 100 100 102 103 99 84 74 81 84 82 79 88 91 96 99
59 73 93 97 75 81 91 73 68 75 95 99 95 100 79 80 74 49 47 38 34 31 26 21 12 11 9 9 16 26 31 27 24 22 23 22 22 26 29 30 31 37 45 51 57 66 69 70 71 70 72 75 80 79 83 87 85 86 85 79 73 78 82 86 94 96 101 102 100 101 101 98 95 89 88 98 105 103 96 89 81 76 81 91 101 104 99 86 83 88 93 102 100 104 99 94 87
62 70 91 96 84 93 87 75 81 69 84 97 87 98 85 75 73 51 46 41 36 36 30 22 14 11 10 9 13 22 28 28 26 24 24 24 24 24 27 30 30 35 41 50 55 58 54 47 47 51 54 60 68 71 76 78 77 77 79 79 76 79 81 87 98 95 92 93 93 98 102 98 97 99 98 101 103 98 85 77 74 70 72 77 84 93 100 97 97 101 102 103 96 90 73 66 68
85 87 92 100 93 96 85 78 80 61 80 87 66 96 94 69 72 56 46 44 37 38 34 24 17 11 10 9 11 18 24 28 27 26 28 27 27 26 28 30 31 36 40 47 49 47 45 42 43 42 43 50 59 63 69 72 65 62 71 76 72 75 72 78 93 90 79 77 85 89 93 100 101 101 101 102 97 89 78 73 76 71 72 78 76 79 87 93 97 96 92 82 70 57 50 62 71
91 97 90 103 99 98 96 89 84 76 91 79 52 84 97 71 67 61 50 45 39 39 37 27 19 12 10 9 10 15 21 28 28 27 31 32 32 31 32 35 37 41 47 53 57 61 61 60 59 58 60 65 75 77 77 74 65 61 74 82 80 85 82 87 100 97 88 80 86 84 85 99 100 99 100 93 81 78 75 71 76 69 65 70 70 67 66 72 74 68 61 51 49 52 62 79 77
76 94 91 101 97 95 101 97 93 95 102 85 54 61 88 83 63 61 57 48 43 39 38 32 21 14 10 9 9 13 19 27 30 31 35 37 39 40 41 43 46 50 59 69 77 81 79 77 76 82 87 88 94 90 80 73 77 79 80 84 80 76 73 87 105 103 97 86 90 94 93 99 101 103 93 80 78 77 72 62 60 57 51 48 45 43 42 44 44 44 44 44 62 83 91 94 81
62 84 88 95 95 93 95 98 96 99 103 85 63 66 93 96 64 57 61 54 47 39 40 36 24 16 11 10 9 11 17 22 28 34 39 43 46 49 52 55 61 67 72 79 82 79 78 80 83 92 98 100 99 90 83 79 85 81 73 80 71 61 58 71 94 102 102 94 95 101 101 101 96 92 83 83 87 75 64 50 40 39 37 33 31 33 38 43 49 57 59 62 83 102 105 106 95
41 60 81 93 96 97 96 100 97 96 95 71 69 88 101 100 69 54 63 62 51 40 41 38 27 18 12 11 9 11 16 18 23 33 43 49 54 60 65 68 71 72 75 77 76 80 88 93 96 101 99 93 84 76 77 71 68 63 63 70 58 58 63 59 72 86 97 101 98 99 100 94 82 79 84 88 76 55 47 38 32 32 31 32 34 38 45 53 64 74 78 83 92 101 105 108 106
29 37 62 85 93 101 99 99 101 95 87 71 73 85 97 102 70 52 66 67 56 42 39 40 30 20 14 12 9 11 15 17 17 25 42 52 60 71 79 79 74 76 82 78 79 91 94 91 86 78 69 59 53 51 54 56 53 48 48 49 45 54 57 48 52 57 69 87 88 90 92 78 71 74 71 62 46 36 33 29 30 31 32 34 34 37 39 44 52 61 69 73 78 95 105 102 104
28 31 53 86 96 101 102 94 98 95 86 82 81 83 98 99 61 52 68 70 63 44 37 41 33 23 16 13 10 10 12 14 15 21 37 51 63 77 91 90 82 86 91 88 85 78 58 49 44 35 32 29 32 34 37 53 50 39 40 40 39 42 42 40 42 42 47 62 61 60 68 59 54 54 43 37 33 31 30 29 31 30 30 30 29 30 27 27 31 36 40 46 68 94 103 102 104
26 30 52 95 101 100 102 84 84 93 88 83 89 96 100 87 55 52 66 72 71 46 37 40 35 26 18 15 11 9 11 11 13 22 39 57 74 86 93 93 92 96 96 90 72 44 23 22 23 21 24 23 26 27 28 40 36 32 38 34 30 33 41 38 32 36 39 49 50 41 44 42 39 39 34 33 32 31 30 28 26 23 23 22 23 23 24 26 27 29 31 48 84 102 102 103 99
25 28 41 87 102 100 102 82 83 100 94 74 85 99 86 73 55 52 63 71 72 49 36 39 37 29 20 18 13 10 10 10 12 19 36 55 70 71 70 78 82 77 65 54 36 21 19 21 22 23 24 22 23 23 25 27 23 24 26 27 33 33 35 31 29 36 39 47 47 38 36 37 37 37 35 34 34 31 27 22 20 20 22 25 29 33 38 42 44 47 52 67 87 93 92 94 92
23 26 34 82 101 96 101 94 89 98 90 63 78 101 92 79 54 49 64 70 69 49 35 37 38 31 23 21 15 12 9 9 12 14 24 35 45 49 53 57 48 34 24 20 18 18 21 22 22 23 21 20 20 19 21 21 19 20 19 29 39 32 26 25 27 32 39 42 36 35 38 39 41 37 34 34 30 26 22 21 21 23 27 32 35 35 36 38 42 48 55 63 69 75 83 92 96
21 23 30 78 101 96 100 100 89 89 89 69 76 96 101 90 55 48 61 68 67 46 35 36 39 34 26 24 17 13 10 9 11 12 17 20 29 42 46 36 20 16 16 16 16 17 20 23 22 20 19 18 20 19 20 20 19 21 20 25 28 27 28 23 23 27 33 34 34 41 42 46 46 33 27 26 23 23 23 23 22 23 27 30 31 31 33 35 35 35 38 42 45 51 59 66 67
18 21 25 53 82 98 101 100 95 97 102 89 78 82 99 89 53 49 56 65 64 42 35 34 38 38 27 26 22 15 11 10 10 11 15 17 25 34 30 18 14 15 15 16 16 17 18 20 19 18 20 19 20 20 20 21 21 21 22 22 22 25 27 22 25 27 26 33 45 51 49 53 46 28 23 22 23 25 24 23 25 26 29 32 34 37 39 38 36 34 34 34 33 33 35 37 36
14 19 24 29 48 79 91 96 103 105 105 98 80 79 103 87 48 49 51 58 60 40 35 33 37 39 31 28 25 19 13 10 10 11 12 15 19 21 18 13 15 15 15 17 16 18 18 17 19 17 19 20 20 21 21 22 22 22 23 23 23 23 24 25 26 25 28 40 52 56 56 53 39 32 32 28 29 29 25 25 28 31 33 34 32 29 28 28 29 30 32 31 30 29 30 31 31
11 16 22 22 30 52 65 81 100 103 101 101 91 90 106 80 45 49 49 51 53 42 35 34 37 39 34 30 28 24 15 11 10 10 11 12 14 13 14 14 15 16 16 18 16 18 19 18 19 17 18 19 19 20 21 22 22 23 24 24 24 24 26 28 29 31 39 49 54 55 56 48 35 37 38 36 41 35 27 30 38 40 35 30 23 20 20 22 24 26 28 28 29 30 31 32 32
10 13 18 20 25 36 41 67 100 103 98 101 98 100 100 68 46 50 49 47 46 44 38 33 37 39 37 32 31 28 18 14 10 10 12 10 13 12 14 14 14 16 16 17 18 18 19 20 20 19 19 18 19 20 20 22 22 24 24 25 24 25 29 31 34 39 44 50 54 54 54 47 37 35 36 44 50 38 33 43 49 45 36 29 22 19 20 21 24 26 28 29 31 32 33 36 40
8 10 16 18 22 27 28 62 104 103 98 102 100 104 91 56 45 48 48 49 42 43 41 33 36 38 39 34 32 32 22 16 11 10 11 10 12 12 13 15 14 16 16 17 18 18 20 23 23 22 20 19 20 19 20 21 22 23 23 25 25 28 31 32 37 41 44 49 55 58 57 52 43 36 38 50 55 42 39 48 47 39 34 31 26 23 24 24 27 28 31 32 32 37 45 53 59
8 8 14 17 20 23 24 61 101 102 101 104 100 105 93 62 50 49 51 54 42 39 40 35 36 38 39 37 34 34 27 18 13 11 11 10 11 12 13 14 15 15 16 17 17 19 19 23 29 28 22 19 20 19 21 21 22 23 23 24 26 31 33 34 37 40 44 48 55 65 65 60 51 42 44 51 51 41 40 46 43 34 30 30 29 28 28 29 30 31 31 33 40 52 64 71 73
8 7 12 15 19 20 34 75 99 100 104 103 100 100 99 87 69 61 60 56 45 37 37 35 36 39 39 39 36 35 31 22 15 12 10 11 10 12 13 13 15 15 16 17 17 19 19 25 34 30 22 19 20 20 20 21 21 22 22 24 26 31 34 35 36 38 43 44 53 66 67 67 58 45 46 49 42 39 43 46 41 32 27 27 28 28 30 31 33 35 40 46 57 68 73 76 74
7 7 10 12 19 18 41 91 102 99 104 99 101 98 99 99 81 75 71 58 48 36 33 33 34 39 40 39 38 36 35 26 17 14 11 11 11 11 13 13 15 15 16 17 17 19 19 26 34 29 22 20 20 20 20 21 21 22 23 24 27 32 36 37 37 37 39 39 51 64 64 65 59 45 44 45 41 41 44 45 41 33 30 30 32 35 37 39 43 51 59 64 68 73 75 74 72
6 8 8 9 18 15 38 91 99 96 102 98 102 99 99 100 88 92 86 63 49 37 31 31 31 38 41 39 40 37 36 31 21 16 13 11 12 11 12 13 13 15 16 17 17 19 21 27 32 28 22 21 20 20 20 20 20 22 23 25 26 30 35 36 34 34 36 37 48 59 59 57 53 48 48 46 44 42 43 49 49 41 38 40 43 49 52 54 58 63 63 64 66 69 73 73 73
6 7 7 9 15 13 34 72 85 95 101 98 102 99 99 101 97 104 97 71 52 39 33 30 28 36 41 38 40 40 37 35 25 19 16 12 13 13 13 13 13 15 15 17 18 22 28 30 29 28 23 22 20 19 20 20 21 21 23 25 25 27 30 33 31 31 33 38 48 55 55 56 56 58 58 51 47 43 43 51 54 49 47 50 52 55 60 64 68 69 66 64 64 67 73 78 79
7 7 6 8 11 17 36 54 73 99 103 97 102 101 99 100 99 104 102 80 53 40 36 32 28 32 42 40 39 42 38 37 31 22 19 15 14 13 13 13 13 15 15 18 20 27 39 35 28 27 24 21 19 19 20 20 21 22 23 23 24 26 28 31 30 30 34 40 49 52 53 60 67 71 66 57 52 46 42 46 50 51 56 58 58 58 61 68 73 76 77 75 74 74 78 83 87
7 7 6 8 9 16 37 58 80 101 101 98 102 101 100 101 100 103 105 84 52 42 41 37 30 29 41 42 38 43 40 39 35 26 22 18 16 15 14 14 14 15 17 21 24 34 46 37 26 26 23 21 19 18 19 19 22 22 23 23 24 26 28 30 30 32 37 39 43 46 51 62 73 76 71 64 62 54 45 46 49 54 62 64 64 66 70 73 74 76 77 77 76 77 79 87 95
6 7 7 7 10 10 28 71 98 100 99 99 100 101 100 100 98 101 104 83 54 44 42 41 36 29 40 45 38 42 42 40 39 31 25 21 18 16 15 14 15 17 20 24 29 40 47 34 24 25 23 20 19 18 17 18 21 22 23 24 25 26 28 29 29 31 37 39 39 43 52 68 79 79 75 75 73 63 53 51 55 60 63 64 64 68 71 72 72 72 72 70 68 72 78 85 91
6 7 7 5 10 8 20 73 103 99 101 100 98 101 100 98 96 99 101 81 58 49 43 43 42 31 39 48 41 41 43 41 41 35 28 24 21 18 16 15 15 18 22 26 31 40 41 30 23 24 23 22 20 19 18 17 19 21 22 23 25 26 27 27 27 29 33 37 38 39 47 66 82 81 74 75 77 73 68 63 60 60 59 58 59 60 61 63 66 69 68 63 62 69 72 69 72
6 6 8 5 8 8 18 68 103 99 100 101 99 100 100 99 96 98 101 86 66 58 48 43 45 36 38 49 44 41 44 42 42 38 30 26 23 20 18 15 16 18 21 25 29 34 32 25 23 23 23 23 22 23 22 19 19 21 21 22 23 25 27 28 27 26 29 33 36 37 38 50 72 83 76 69 69 72 77 77 71 64 58 54 52 52 53 55 60 65 64 62 65 69 64 57 60
7 5 7 6 7 9 13 50 94 102 97 99 100 99 101 101 93 86 87 86 76 66 57 48 49 41 35 48 49 41 44 44 43 41 33 29 25 22 20 17 16 17 19 22 26 27 25 24 23 23 23 23 24 26 26 22 20 21 22 23 22 23 26 29 30 26 26 29 32 36 36 38 56 77 85 80 72 68 70 77 81 76 68 59 51 48 52 57 58 60 61 62 64 62 57 56 63
8 6 6 7 6 9 10 25 72 104 99 97 102 99 101 101 95 82 70 81 87 76 68 57 54 48 35 46 53 42 42 44 44 44 37 30 27 24 21 19 18 17 20 22 23 25 25 25 25 24 25 25 25 26 26 25 23 23 26 27 23 20 24 29 33 30 27 28 31 34 36 35 41 57 75 85 83 76 68 68 74 77 77 72 60 52 55 60 59 57 59 60 57 54 55 60 70
7 7 6 8 5 8 10 10 50 100 103 98 102 98 99 100 99 92 72 76 90 86 81 68 58 54 37 42 57 46 40 42 43 46 41 33 29 26 23 21 21 21 23 24 25 28 29 28 28 28 28 28 30 28 26 25 24 27 29 28 24 20 22 26 31 32 30 30 32 35 38 38 38 42 53 66 72 72 68 65 65 66 70 74 69 60 58 59 56 53 55 55 52 53 58 65 75
7 7 6 8 6 6 11 6 32 87 104 98 102 100 100 100 99 100 81 72 85 91 93 79 59 57 42 39 59 54 42 42 42 44 44 36 30 28 25 23 23 24 26 29 31 33 33 33 34 34 31 31 33 31 28 26 25 28 29 27 24 22 21 23 26 30 31 32 32 33 35 35 35 35 37 43 48 51 55 58 59 55 54 58 60 61 60 56 54 52 51 53 51 55 62 68 77
7 8 7 7 8 6 9 8 16 61 99 99 99 101 100 100 99 101 87 70 76 90 102 89 62 60 49 37 57 61 46 43 41 42 46 41 33 28 27 26 25 25 27 31 34 36 37 38 39 39 37 35 36 35 32 29 25 26 27 26 25 24 23 22 23 25 27 30 32 33 33 33 33 32 31 32 34 35 39 44 49 51 49 46 45 48 51 53 54 50 46 47 49 57 67 76 87
7 8 8 6 9 8 8 10 7 40 92 102 98 101 100 100 99 102 93 69 68 88 106 96 66 64 59 41 53 64 51 43 42 41 43 45 38 30 28 28 27 27 29 31 33 38 41 42 43 43 42 39 39 40 39 35 29 27 27 25 27 27 26 24 23 23 24 25 29 31 34 35 34 34 33 31 30 30 32 37 44 51 52 50 45 43 45 48 48 44 42 46 53 65 78 91 99
7 7 9 6 9 9 6 10 6 28 83 103 98 100 99 99 98 101 97 68 60 83 101 93 70 70 72 52 48 63 57 44 42 42 42 45 43 35 30 29 29 29 30 32 34 39 43 44 46 46 44 43 41 44 45 42 37 32 30 29 29 30 29 28 25 23 24 25 26 28 30 33 33 34 35 35 33 31 31 34 39 45 49 51 47 43 43 41 38 39 43 50 59 72 86 98 98
7 7 9 7 8 8 7 10 5 25 83 106 95 96 98 99 99 99 97 72 61 81 94 85 72 74 84 69 52 61 65 49 42 44 42 43 44 40 34 29 29 30 29 33 34 37 42 43 45 46 45 44 42 44 47 48 46 42 39 35 34 35 36 33 30 26 26 27 28 28 27 27 28 30 33 35 36 35 33 33 35 39 43 45 42 37 36 36 36 41 50 57 64 75 86 91 86
7 7 8 8 8 8 8 12 6 24 83 105 86 90 97 96 99 97 94 83 72 86 91 77 69 74 86 86 66 64 74 61 47 46 44 43 43 43 41 33 29 30 29 31 34 35 39 42 44 45 45 46 44 42 45 47 50 50 47 44 41 42 43 41 37 32 29 30 30 31 31 29 27 27 29 33 35 36 34 33 35 38 40 39 37 37 39 40 42 47 55 60 66 73 80 81 76
6 7 8 8 9 9 9 15 12 22 75 100 81 87 98 96 102 96 90 90 84 91 88 67 65 72 77 87 81 74 83 74 55 48 46 44 43 42 43 40 32 31 30 29 32 34 36 40 44 48 47 47 47 44 44 46 48 52 52 50 48 47 48 49 47 40 36 35 33 32 33 32 29 27 26 28 31 34 35 33 33 36 37 35 38 47 56 59 59 59 59 61 67 73 76 76 69
6 6 8 8 9 10 8 15 19 22 63 102 93 90 100 98 97 87 84 92 91 94 82 54 58 67 64 77 88 86 90 84 65 55 51 46 46 42 41 44 38 33 32 31 31 33 34 36 40 46 45 41 43 43 42 43 45 49 52 53 53 51 51 52 52 51 46 44 41 36 33 31 28 27 26 26 27 30 33 34 33 33 33 34 39 50 61 68 71 70 67 66 71 76 76 74 64
7 6 7 9 8 10 9 11 21 22 43 90 104 95 99 102 93 79 82 97 100 95 72 44 48 59 56 67 87 95 96 90 74 60 54 49 48 46 39 42 44 39 36 33 33 34 34 36 35 39 41 38 39 39 39 40 41 45 49 52 53 54 54 53 53 54 53 53 51 46 41 36 31 26 24 25 26 27 29 32 33 32 33 34 38 47 56 65 71 74 75 74 76 79 78 73 59
7 7 7 10 8 10 10 6 25 38 32 64 104 102 97 103 94 80 86 101 104 98 76 52 49 54 54 59 79 98 98 94 85 67 58 53 51 52 44 41 45 44 41 36 36 37 36 38 37 35 37 38 38 38 37 38 38 40 44 46 50 52 54 54 53 53 54 55 56 55 53 49 43 35 27 25 25 26 26 29 32 32 32 33 37 45 53 60 65 69 73 74 77 82 78 67 51
6 8 6 10 9 9 12 5 33 67 40 36 81 99 101 107 93 85 96 102 97 96 87 68 55 51 53 54 69 96 99 93 91 77 63 56 53 56 51 44 43 45 45 40 38 41 41 43 43 38 36 36 39 39 38 38 38 38 40 42 45 48 51 53 53 52 52 53 56 57 58 57 56 50 40 30 25 25 25 25 28 31 31 32 34 40 47 52 57 62 66 68 72 75 71 60 45
6 9 6 10 9 9 13 5 37 87 57 21 41 63 88 108 95 87 97 94 85 87 85 69 57 55 57 57 65 90 102 96 93 84 68 58 57 60 57 50 45 44 48 45 40 43 47 51 52 47 41 36 37 38 39 41 43 41 41 41 43 44 46 49 51 52 52 52 53 55 57 60 62 62 57 45 32 26 25 24 24 26 29 31 33 37 43 49 54 57 59 61 63 63 60 53 42
6 8 6 10 9 9 14 6 40 91 67 35 47 56 79 104 98 90 90 85 78 77 72 59 56 62 63 63 65 82 100 100 97 90 74 64 61 62 61 56 50 46 48 50 48 49 55 60 60 56 50 42 38 37 37 40 44 46 45 44 44 44 44 45 48 50 51 52 52 53 55 57 61 66 68 62 50 37 28 25 23 24 25 27 30 34 39 45 51 56 57 56 57 55 50 45 39
7 8 6 10 9 10 14 13 51 87 56 49 85 90 92 102 99 96 90 82 77 72 67 56 53 60 64 67 71 83 99 104 102 96 84 74 68 64 65 63 56 50 49 50 52 54 57 59 60 60 58 52 46 41 38 38 41 45 49 49 47 45 44 44 45 48 50 51 53 53 53 53 54 59 67 70 67 55 42 32 25 23 24 25 27 29 34 39 45 53 56 53 52 50 45 40 35
8 8 7 10 9 10 13 16 53 74 41 51 99 104 99 102 99 100 91 79 74 70 69 62 53 52 62 74 78 81 92 99 104 103 92 83 74 66 64 66 64 57 52 50 50 50 50 51 55 60 63 60 57 52 47 44 43 45 51 55 53 50 47 44 44 48 52 52 51 51 50 50 48 49 55 62 66 65 59 49 37 28 23 23 24 25 28 34 42 51 55 51 47 45 42 38 33
9 8 7 9 9 10 11 12 38 57 46 64 98 102 102 103 100 102 91 76 70 64 64 67 57 46 53 71 75 72 75 80 90 101 98 86 74 65 64 67 68 65 60 58 54 50 48 48 49 54 60 63 62 60 57 55 53 51 53 58 60 57 51 49 48 48 51 53 52 51 48 46 46 45 46 50 55 61 62 60 53 42 30 23 22 23 24 29 38 50 56 51 44 40 39 37 32
11 9 8 9 8 9 12 11 20 39 61 86 99 103 107 103 102 101 83 72 70 59 57 66 61 47 46 58 65 67 67 62 70 91 100 92 75 62 61 65 69 69 68 65 60 56 52 50 47 47 51 57 59 60 61 62 63 64 64 67 73 70 58 54 54 51 51 51 52 53 52 47 43 42 44 45 45 49 55 58 59 54 44 32 22 20 21 24 31 43 52 53 47 40 36 34 30
12 9 8 8 9 9 10 13 12 24 67 102 102 103 109 102 103 97 74 67 69 58 56 65 63 53 48 47 51 63 69 62 67 89 103 99 86 68 56 58 66 70 71 71 67 61 56 53 52 47 45 49 53 56 58 60 63 69 69 67 78 87 76 63 60 58 55 53 52 54 56 55 50 43 40 42 43 43 45 49 53 55 53 45 31 22 19 20 23 29 36 44 46 41 34 30 27
13 10 8 8 9 9 8 13 11 15 59 104 106 103 106 100 101 95 71 63 68 64 64 68 65 55 41 33 42 64 75 68 68 88 103 104 97 83 61 51 59 66 67 69 70 65 60 56 54 52 49 48 50 52 55 58 58 60 61 57 64 78 80 74 70 66 62 59 56 55 56 58 61 54 43 38 40 42 43 44 45 48 49 49 42 30 22 18 19 22 26 34 42 41 34 29 25
14 10 9 9 9 10 9 11 12 12 37 81 103 104 101 98 102 96 74 64 70 73 74 74 68 53 37 38 61 87 94 82 73 80 94 102 101 94 74 52 50 62 64 63 68 68 66 65 64 63 60 56 54 53 55 59 58 57 56 51 50 56 62 68 72 74 76 72 64 60 58 57 60 64 58 47 39 39 41 43 42 40 42 44 43 38 29 20 16 18 21 27 36 42 39 33 26
15 11 8 9 9 9 10 10 12 13 16 43 86 106 101 97 102 97 81 76 83 85 84 85 75 55 47 59 83 102 105 97 85 76 79 93 101 99 89 65 51 60 64 60 66 70 69 72 76 76 73 67 61 57 55 58 61 62 60 55 51 49 50 56 62 71 83 85 75 65 59 55 54 58 62 59 51 42 38 40 40 38 36 37 38 39 35 28 20 16 16 20 26 34 39 38 33
Wind_Speed
3 4 5 7 11 14 14 14 17 17 18 18 18 21 26 27 30 33 34 36 37 38 37 35 32 29 28 26 24 21 17 15 12 10 10 11 12 13 12 11 11 12 11 11 11 10 9 7 4 3 9 14 18 20 18 14 16 20 21 21 24 24 19 16 13 10 10 10 11 10 9 8 7 6 7 7 7 8 10 11 12 13 13 14 14 15 15 15 15 16 16 14 14 15 17 18 19
1 3 5 7 10 13 13 13 15 16 16 14 15 19 23 26 29 32 34 35 37 38 38 36 32 29 28 26 24 21 18 15 13 11 11 13 13 14 14 13 14 14 13 13 13 13 13 13 13 12 8 4 6 10 12 11 11 14 18 19 22 23 19 13 10 7 6 6 6 6 6 6 6 7 8 9 9 10 11 12 13 15 15 14 14 15 15 15 16 16 15 14 14 14 16 16 17
1 1 4 8 10 11 11 11 12 15 15 12 13 17 21 25 28 32 34 35 36 37 38 36 33 30 27 25 24 22 19 16 14 12 11 13 15 14 15 15 16 16 15 14 14 14 14 14 15 16 16 14 11 7 5 6 8 10 12 13 14 13 12 9 6 4 4 4 4 3 4 4 6 9 12 12 11 11 12 14 15 16 16 15 14 14 15 15 16 15 14 14 14 14 14 14 15
3 1 3 7 9 9 9 9 11 14 14 12 14 17 20 25 28 31 33 34 35 37 38 37 34 30 27 25 23 22 19 17 16 14 11 13 15 14 15 17 17 18 17 16 16 15 15 15 15 16 17 18 17 16 13 10 7 6 5 6 5 4 4 2 0 2 4 3 1 3 5 6 10 11 12 13 12 11 13 14 15 16 17 16 14 14 15 17 17 15 14 15 16 14 14 15 15
3 2 1 5 8 8 8 9 9 12 13 12 15 17 20 24 27 30 32 33 35 36 38 37 34 30 28 26 23 22 20 18 17 16 12 12 15 15 15 17 18 18 18 16 16 15 15 14 14 15 16 17 17 17 17 16 14 13 10 9 7 6 6 6 6 6 7 4 4 5 7 9 10 10 10 10 11 11 12 13 14 14 15 15 14 14 16 17 17 14 15 17 17 15 16 16 16
3 2 0 3 8 8 7 8 9 10 11 13 15 16 20 24 26 29 31 33 34 36 37 37 35 31 28 26 24 21 20 19 19 18 14 13 15 15 14 15 17 17 17 16 15 14 13 12 12 13 14 15 15 15 15 15 14 13 12 11 10 10 9 8 5 4 4 5 6 6 8 9 9 10 9 7 8 9 9 11 13 14 14 14 13 16 17 18 18 16 16 16 15 15 16 16 15
4 3 1 1 5 7 6 8 9 10 10 12 13 15 20 23 25 27 29 32 34 36 37 36 35 31 29 26 24 21 20 20 19 18 16 15 15 14 12 13 14 15 15 15 13 12 11 11 12 13 13 13 13 13 14 14 13 12 10 10 9 9 8 6 3 2 4 5 5 6 8 9 9 9 7 6 8 8 9 13 15 16 16 16 14 16 17 17 16 14 15 15 16 16 17 17 16
4 3 1 1 3 5 5 8 9 9 11 11 11 15 21 23 23 26 29 32 34 35 36 36 35 32 29 27 24 21 20 20 20 18 17 16 15 13 12 12 12 12 13 13 12 11 11 11 12 12 13 12 12 12 13 13 13 11 10 9 9 9 8 6 1 2 3 6 7 8 9 10 9 8 8 9 9 10 14 17 17 17 17 17 16 16 15 15 16 17 18 19 19 19 19 18 15
4 3 3 3 2 3 4 7 8 10 11 9 10 14 21 22 21 25 28 31 34 35 35 35 34 32 30 27 25 22 20 20 19 17 16 16 16 14 13 12 11 11 12 12 12 11 11 11 11 12 11 11 11 11 11 11 11 10 9 8 8 8 8 6 1 3 4 7 7 7 9 9 9 9 10 10 12 15 18 18 17 17 16 16 16 16 17 18 20 22 23 22 20 19 17 15 12
5 3 3 1 1 3 4 5 7 10 8 7 10 13 18 20 20 23 27 30 33 34 34 34 34 32 30 27 25 22 20 19 17 16 16 16 16 14 13 12 11 11 11 12 12 12 12 11 11 11 11 11 10 10 10 9 10 9 8 7 7 7 7 6 2 4 5 6 6 7 7 7 9 11 11 13 16 18 18 17 16 16 16 16 17 17 18 19 21 21 21 19 18 16 14 12 9
7 4 3 2 1 2 4 5 7 8 6 6 10 13 15 17 18 21 25 28 31 33 33 33 33 33 30 28 26 23 21 18 16 16 16 16 15 14 13 12 11 11 12 13 13 13 12 10 11 10 10 10 10 10 10 10 10 9 8 7 6 5 5 4 3 5 6 6 6 6 6 6 9 11 12 15 16 15 15 16 16 16 17 17 17 18 18 18 19 18 17 16 15 13 12 10 8
10 7 6 4 2 2 5 5 4 4 3 4 10 15 16 16 16 18 22 26 29 31 32 32 33 32 30 28 26 24 21 18 16 15 15 15 15 14 13 13 12 12 13 14 14 13 13 12 11 9 8 9 10 10 11 10 10 9 9 8 7 6 5 4 4 4 5 6 5 5 7 8 9 11 13 13 12 14 16 17 17 18 18 18 18 17 17 17 17 16 15 14 13 12 11 9 7
13 11 7 5 3 2 4 4 2 2 4 5 9 13 14 14 15 16 20 24 27 30 31 32 32 32 31 29 27 24 21 19 18 16 15 14 14 13 13 13 13 14 14 14 13 13 13 12 11 9 8 9 11 12 11 10 10 10 10 9 8 7 6 4 3 4 4 4 5 6 7 8 9 10 10 10 12 16 17 18 18 17 17 17 17 16 17 16 16 15 14 13 12 11 9 7 6
14 13 8 4 3 3 2 3 2 4 5 7 8 7 8 12 13 14 19 22 25 29 30 31 32 32 31 29 27 24 22 20 19 17 15 13 12 12 12 13 14 15 15 14 14 14 14 12 11 10 10 11 12 12 12 11 11 11 11 10 9 8 7 4 2 1 2 2 3 6 7 8 8 8 10 12 14 16 16 16 15 15 15 15 15 15 15 15 14 13 13 11 9 7 6 6 6
16 14 9 3 4 6 4 4 5 5 5 5 7 5 5 10 12 12 16 20 24 27 30 31 31 32 31 30 28 25 23 21 20 18 16 14 13 12 12 12 13 15 15 14 15 15 15 13 13 13 14 14 14 14 14 12 11 11 12 11 10 9 8 6 4 3 3 1 2 4 5 7 8 8 9 11 12 12 12 12 12 13 13 12 12 11 11 10 9 9 7 6 4 4 5 6 6
18 15 11 6 4 6 7 6 6 5 4 3 4 4 5 8 10 10 14 18 22 25 28 30 31 31 31 30 28 26 23 22 22 20 18 16 15 14 13 13 14 15 15 15 15 16 16 16 16 17 17 17 16 16 16 15 13 12 12 13 12 10 8 8 7 6 6 5 2 2 4 5 6 6 7 8 8 9 9 10 10 10 8 7 5 4 2 1 1 2 3 5 7 7 7 7 6
19 17 15 10 5 5 6 6 5 5 5 3 3 5 6 7 8 9 12 16 19 24 27 29 30 31 31 30 28 26 24 23 22 21 19 17 16 16 15 15 16 16 15 16 16 17 17 17 18 18 18 19 18 18 18 16 14 13 13 13 12 10 9 9 9 8 8 6 4 4 5 5 5 5 5 6 6 7 8 8 7 5 4 5 5 6 7 7 7 8 8 9 9 10 10 9 7
21 19 17 12 7 7 7 6 6 6 8 5 3 4 5 6 7 8 11 14 17 22 25 27 29 30 31 30 29 27 25 23 22 21 20 18 17 17 17 17 17 16 17 17 18 18 18 18 18 19 19 19 19 18 18 17 15 13 13 13 11 10 10 9 9 8 8 7 7 7 8 8 8 7 6 6 7 8 8 7 6 8 9 11 12 11 11 12 11 11 11 11 11 11 10 8 6
23 21 19 15 11 10 9 9 9 8 8 6 2 2 4 5 6 7 9 12 16 20 23 26 28 29 30 30 29 27 25 24 22 21 20 19 18 17 17 17 17 18 18 19 19 19 19 18 19 19 19 19 19 18 18 17 16 14 14 13 11 11 10 10 9 9 9 9 10 10 10 10 11 11 10 9 9 9 10 9 10 11 13 14 14 13 12 12 12 12 12 12 11 11 9 8 6
25 23 22 20 16 12 11 11 11 8 7 6 3 2 3 4 4 6 8 10 14 18 22 24 27 28 29 30 29 28 26 24 22 21 20 20 19 18 18 17 18 19 19 20 20 20 20 19 19 19 19 19 19 18 18 17 16 14 14 14 12 12 11 11 11 11 11 12 13 13 12 12 12 13 13 12 12 12 13 13 14 14 14 14 13 12 11 11 12 13 13 13 13 13 13 13 13
26 26 25 23 20 16 12 12 12 9 7 7 5 5 4 3 2 4 6 9 13 17 20 23 25 27 28 29 29 28 27 24 22 21 20 19 19 19 18 18 19 19 20 20 20 21 21 20 20 20 20 19 19 18 18 17 16 15 15 14 14 13 13 13 13 13 13 13 14 15 15 14 14 14 14 14 14 15 16 15 15 15 14 13 13 13 13 13 15 15 15 16 17 17 18 17 17
28 28 28 25 23 20 15 12 13 11 8 7 6 5 5 4 2 3 5 8 11 15 18 21 23 26 27 28 29 28 27 25 23 21 20 19 19 19 18 18 19 19 20 20 21 21 22 21 21 21 21 20 19 18 18 17 17 16 16 16 15 15 15 15 15 15 15 15 16 17 17 17 16 15 15 15 15 16 17 16 16 16 15 15 15 17 17 18 19 20 20 20 20 20 19 18 16
30 29 29 26 24 22 18 13 12 12 8 8 8 7 7 5 2 1 4 7 10 13 16 20 22 24 25 26 28 28 27 26 23 21 20 19 19 18 18 18 18 19 20 20 21 22 22 23 23 23 22 21 20 19 19 18 18 17 17 17 17 17 17 17 16 17 17 18 19 19 19 18 18 17 17 16 16 17 17 17 16 16 16 17 18 20 21 21 22 23 22 21 20 20 19 18 17
32 31 29 28 26 24 20 14 12 13 10 9 9 8 8 6 2 1 4 6 8 11 14 18 20 22 24 25 26 27 27 26 24 22 20 19 18 18 18 18 18 19 19 20 21 22 23 23 23 24 24 22 21 20 20 19 19 19 18 18 18 18 18 18 18 18 18 18 19 20 20 20 19 19 18 17 17 17 17 17 17 17 17 17 19 21 22 23 23 23 22 21 21 21 20 19 18
35 32 31 30 28 25 21 15 13 15 12 9 8 8 9 6 3 2 4 6 7 9 12 16 18 19 22 24 25 26 26 26 24 22 21 19 18 18 17 17 18 19 19 21 22 22 23 23 23 24 25 24 22 22 21 21 20 20 20 19 19 19 19 19 19 18 18 19 19 20 21 21 20 19 18 18 17 17 17 17 17 18 18 19 20 21 22 22 22 22 22 22 22 21 21 20 19
37 34 33 32 29 26 21 17 15 15 13 11 9 8 8 8 6 3 4 5 6 7 10 14 16 17 20 22 24 25 25 25 24 23 21 20 19 18 17 17 17 18 20 21 22 23 23 23 23 25 26 25 24 23 22 22 22 22 21 20 20 19 19 19 19 19 19 19 19 20 21 20 20 19 18 18 18 18 18 18 18 19 20 20 21 22 22 22 22 22 22 22 22 21 20 21 20
39 37 35 33 31 27 23 19 15 16 15 12 11 10 9 11 10 5 4 5 5 5 8 11 13 15 18 20 22 24 24 24 24 23 21 21 20 19 18 17 17 18 20 20 22 24 24 24 24 25 26 26 25 24 24 24 24 23 23 22 21 20 20 19 19 19 19 19 18 19 20 20 20 20 19 19 19 19 19 19 20 20 21 22 22 22 23 22 22 21 21 21 22 21 20 20 20
42 40 37 35 33 29 27 23 16 15 16 12 13 14 13 13 11 7 6 6 5 4 6 9 11 13 15 18 20 23 23 23 23 23 22 21 21 20 19 18 18 19 20 21 22 24 25 25 24 25 26 26 25 25 25 25 25 25 24 23 22 21 21 20 20 19 19 19 18 19 20 20 20 20 21 20 20 20 20 21 21 22 22 22 23 23 23 23 22 21 20 21 21 20 19 18 18
44 43 40 37 35 32 30 25 17 14 16 13 14 16 15 15 13 10 7 7 6 3 5 7 9 11 13 16 19 21 22 22 22 22 22 21 20 20 20 19 19 20 21 21 22 24 25 25 25 25 26 26 26 25 25 26 26 26 25 24 24 23 22 21 21 20 20 19 19 19 20 20 20 21 21 21 21 21 21 21 22 22 22 22 23 23 23 23 22 21 20 19 19 19 18 17 16
47 45 42 39 37 35 30 24 18 17 19 18 16 16 16 17 16 12 9 9 7 4 3 5 8 9 11 14 17 20 21 21 21 21 21 21 21 20 20 20 20 21 21 22 23 24 25 25 25 25 26 26 26 26 26 26 27 26 26 25 25 24 24 23 22 21 21 20 19 19 20 19 19 20 20 21 21 22 22 22 22 23 23 24 23 23 23 22 21 21 20 19 18 18 18 16 15
49 47 45 42 39 37 30 22 20 21 22 23 22 20 17 18 17 14 12 11 9 5 1 4 6 8 10 11 15 18 20 20 20 20 20 20 21 21 21 21 21 21 22 22 23 24 25 25 25 25 26 26 26 26 26 27 27 27 27 26 26 25 25 24 23 21 21 21 20 20 19 19 18 19 20 20 20 22 23 23 23 24 24 24 24 24 23 21 20 20 20 19 18 17 17 16 15
52 49 48 45 41 40 33 25 23 24 25 26 27 23 19 19 18 15 14 12 10 6 2 2 4 6 8 9 12 16 18 19 19 19 19 20 21 21 21 22 22 22 22 23 23 23 24 25 25 25 26 26 26 27 27 27 27 27 28 28 27 26 25 25 24 23 22 21 20 20 19 19 19 19 19 19 19 21 22 23 23 23 23 23 23 22 21 20 19 19 18 17 17 17 17 17 16
54 52 50 48 44 42 36 30 28 27 27 28 28 25 21 20 20 17 16 14 11 8 4 2 3 4 6 7 10 14 16 18 18 18 18 19 20 21 21 22 23 23 23 24 24 24 24 25 25 24 25 26 26 27 27 28 27 28 28 28 28 28 27 26 26 25 23 22 21 20 19 19 19 19 19 18 18 19 20 21 22 22 22 21 21 20 18 18 17 16 15 16 16 17 17 17 18
57 55 53 51 48 44 41 36 31 28 28 28 29 27 23 22 22 20 17 15 12 9 7 4 3 3 3 5 7 11 14 16 17 17 17 18 19 20 21 22 23 24 24 24 25 25 25 25 25 25 25 26 26 26 27 28 28 28 29 29 29 29 29 28 28 27 26 24 22 21 20 19 18 18 18 18 17 17 17 19 20 21 21 21 19 18 16 15 15 14 14 14 15 16 17 18 19
58 57 56 54 51 47 45 41 33 28 28 29 30 28 25 25 25 22 19 16 14 11 9 6 5 4 2 3 5 8 12 14 16 16 16 16 17 19 20 21 22 23 24 25 25 25 25 25 26 25 25 27 27 27 26 27 27 28 28 29 30 30 30 29 29 29 28 26 24 22 21 20 18 17 17 17 17 17 17 17 18 19 19 19 18 17 16 16 15 15 15 15 15 15 17 18 19
60 59 58 56 53 50 48 46 37 30 28 29 30 29 28 27 27 24 20 18 17 14 11 9 7 6 4 1 2 5 9 13 14 14 14 15 16 17 19 20 22 23 23 25 25 25 25 26 26 26 26 26 27 27 27 27 27 27 28 29 30 30 30 30 30 31 30 29 27 25 23 21 20 18 16 16 16 16 16 17 17 17 17 17 17 17 17 17 17 17 16 16 16 16 17 19 21
62 60 59 57 55 52 50 50 43 33 29 31 32 31 29 28 27 26 22 21 20 16 13 11 10 8 6 3 1 3 6 10 12 13 12 13 15 16 18 19 21 22 23 24 25 25 25 26 26 26 26 26 26 27 28 28 28 28 28 29 30 31 31 31 31 31 31 30 29 28 26 24 22 20 18 18 17 16 16 17 17 17 17 17 17 17 16 16 16 16 16 16 17 18 20 21 22
64 62 61 59 57 55 53 53 49 39 31 32 34 33 31 29 28 27 25 24 23 19 16 14 12 10 8 5 3 1 4 8 11 11 11 12 13 14 16 17 19 21 22 24 24 25 25 25 26 26 26 26 26 26 28 28 29 29 29 29 30 31 32 32 31 31 31 31 31 30 28 27 25 23 22 20 19 18 17 17 17 17 17 17 16 16 16 16 16 16 17 17 18 20 20 21 22
65 64 63 61 60 58 56 55 53 45 35 32 33 33 32 31 29 28 29 28 25 22 19 16 14 12 10 8 6 4 3 5 9 10 10 10 12 13 14 15 17 18 20 22 23 24 25 25 25 26 26 26 26 26 27 28 29 29 29 29 30 32 33 33 32 32 31 31 31 31 30 30 29 27 25 23 22 21 20 19 18 18 18 18 17 16 16 17 18 20 21 21 21 21 22 22 23
67 66 65 63 62 60 58 57 55 50 41 32 32 34 34 34 32 30 31 30 27 24 22 18 17 14 11 11 9 7 4 4 6 9 9 9 10 11 12 13 14 16 17 19 20 22 23 24 25 26 26 26 26 26 27 28 29 29 29 30 31 32 33 33 33 33 33 32 32 32 31 31 31 30 28 27 26 24 23 21 20 20 19 19 19 19 18 19 21 23 24 24 23 23 24 26 26
69 69 67 65 64 62 61 58 56 53 46 37 34 36 36 36 34 33 33 32 28 26 24 20 18 17 14 13 11 9 6 4 4 7 9 8 8 9 11 11 12 14 15 17 18 19 21 22 23 24 25 25 25 25 26 27 28 29 29 30 30 31 32 33 34 34 34 34 34 33 33 32 32 31 30 29 28 27 26 24 23 22 21 20 20 21 22 23 24 25 24 24 23 24 25 26 27
72 71 69 67 66 64 63 60 58 55 50 43 40 38 37 36 35 35 35 33 29 28 27 23 21 20 17 14 12 10 7 5 3 4 7 8 7 8 9 10 10 11 13 15 16 17 19 20 22 23 24 24 24 25 25 25 26 28 29 29 30 30 31 32 33 34 34 34 34 35 35 34 33 32 31 30 30 29 28 27 26 24 23 22 22 23 24 24 24 24 24 24 24 24 26 27 28
73 73 71 69 67 66 65 62 60 57 52 49 46 40 37 36 36 36 36 35 32 30 29 26 24 23 18 15 13 12 10 7 5 4 5 6 7 7 7 8 9 10 11 13 14 16 17 18 20 21 22 22 23 23 23 23 24 26 27 28 29 30 30 31 32 33 34 34 34 35 35 35 35 34 33 32 31 30 29 28 27 25 25 24 24 25 25 25 24 23 24 26 26 27 28 29 29
74 74 73 71 69 68 67 65 62 60 54 51 49 42 37 37 37 37 38 37 35 33 31 28 27 25 20 18 16 14 12 9 7 6 4 5 6 7 7 6 7 8 9 10 12 14 16 17 18 18 19 20 21 21 22 22 22 23 24 26 27 28 29 30 31 32 32 33 34 34 35 35 35 35 35 34 33 32 31 30 28 26 25 25 25 25 25 25 24 23 25 26 28 28 29 29 30
75 75 74 73 72 70 69 67 64 62 57 53 49 44 40 39 40 39 38 37 36 35 33 31 29 27 23 21 19 17 15 12 10 9 7 5 6 7 7 7 6 6 7 9 10 12 14 16 17 17 18 19 19 20 20 21 21 22 23 23 24 26 27 28 30 30 31 32 33 34 35 35 35 35 35 35 34 34 33 32 30 28 25 24 24 24 24 24 24 23 25 26 27 28 28 29 29
76 76 76 75 74 72 70 69 66 64 62 57 52 47 43 42 41 41 38 36 36 36 35 33 30 28 25 23 21 19 18 15 13 11 10 8 6 6 7 7 6 5 5 7 8 10 12 14 16 17 17 18 18 19 20 20 21 21 21 22 23 23 24 26 27 28 29 30 31 33 34 34 35 35 35 35 35 35 34 33 32 30 28 26 24 24 24 24 24 23 23 24 26 26 27 27 28
77 77 77 77 75 73 72 71 68 66 66 63 58 52 48 44 43 42 40 39 39 37 35 33 32 30 28 26 24 23 22 19 16 14 13 11 8 6 6 6 6 5 4 5 7 8 10 12 13 15 16 16 17 18 19 19 20 21 21 21 22 22 23 24 25 26 27 28 29 31 32 33 33 34 35 35 35 35 35 34 33 32 30 29 27 26 26 25 24 23 23 24 25 25 25 26 27
78 78 78 77 76 75 73 72 70 66 67 68 64 60 53 47 45 44 44 45 43 39 36 35 33 32 30 29 28 26 24 22 20 18 16 14 11 8 6 6 6 6 5 5 6 7 9 10 11 12 14 15 16 16 17 18 19 20 20 21 21 22 22 23 23 24 24 26 27 28 30 31 31 32 33 34 34 34 34 34 34 33 31 30 29 28 26 25 25 25 24 25 25 25 24 24 25
80 80 79 77 76 76 75 74 71 68 67 68 67 64 57 52 50 49 48 48 45 41 39 37 35 33 31 30 29 27 26 25 23 21 19 17 14 11 9 7 7 6 6 5 5 5 6 7 8 9 10 12 13 14 15 16 17 18 19 20 20 20 21 21 22 23 23 24 25 26 27 29 30 30 31 32 32 32 33 33 33 33 32 30 29 27 26 25 25 25 25 25 25 25 24 24 24
80 81 81 79 78 77 77 76 73 69 68 66 63 62 59 55 54 53 51 50 48 44 40 36 36 35 33 31 30 29 27 26 26 24 21 19 17 15 12 9 8 7 6 6 5 3 3 4 6 6 7 8 10 11 12 13 15 17 18 18 19 19 19 20 21 22 22 23 24 25 25 27 28 29 30 30 30 30 31 31 31 31 31 30 28 27 25 24 24 24 25 25 25 25 24 23 23
83 83 83 81 80 79 78 78 75 70 68 66 61 61 60 57 55 55 55 54 51 46 40 37 37 36 35 33 31 31 29 28 29 27 24 22 20 18 15 12 10 9 7 7 6 3 1 2 4 5 5 6 7 8 9 10 11 13 14 15 16 17 18 18 19 20 21 22 23 24 24 25 27 28 28 29 29 29 29 29 29 29 29 29 28 27 25 24 23 24 25 25 25 24 23 23 23
84 83 83 83 83 82 80 79 76 70 68 67 63 60 60 57 55 56 58 56 52 48 42 39 39 38 37 36 35 34 33 32 32 32 28 25 23 21 19 16 13 11 9 8 7 5 3 1 2 3 4 4 5 6 7 8 8 9 10 11 13 14 16 16 17 18 20 20 22 22 23 24 25 26 27 27 28 28 28 28 28 27 27 27 27 26 26 24 24 24 25 25 25 24 23 22 23
84 84 85 84 84 83 81 79 77 72 68 68 66 62 59 57 54 53 56 56 52 49 45 42 42 41 39 39 38 37 36 35 34 34 32 29 26 24 21 19 16 14 12 10 9 8 6 4 2 2 3 4 4 5 6 6 7 6 6 7 8 10 12 14 14 16 17 19 20 21 22 22 23 24 25 25 26 26 26 27 26 26 25 25 25 25 25 24 23 23 24 24 24 23 22 21 21
86 86 87 85 84 84 83 80 79 76 71 70 69 65 60 58 55 55 56 55 53 50 48 46 46 43 42 41 40 38 37 35 34 34 34 31 28 26 24 22 20 17 15 14 13 11 10 8 6 3 2 2 3 5 6 6 6 6 6 7 7 6 7 10 11 13 14 16 17 19 20 21 22 22 22 23 24 24 24 25 25 25 24 23 23 23 23 23 22 21 22 22 22 22 21 20 20
87 87 86 85 85 85 84 83 81 79 75 70 68 66 63 60 58 59 59 56 53 51 49 48 48 46 44 43 41 39 38 36 34 33 34 32 30 29 27 25 23 22 20 18 17 14 12 11 9 8 6 3 2 2 4 5 6 5 6 8 8 6 5 6 7 8 11 13 14 16 17 19 20 21 21 21 21 22 22 23 23 23 23 22 22 21 21 21 21 19 19 19 20 21 21 20 19
87 87 85 85 86 87 86 85 82 80 77 72 67 66 65 62 60 61 62 58 54 52 50 49 48 47 46 44 41 38 38 38 36 34 35 34 33 31 30 28 26 25 24 22 20 18 15 13 12 11 9 8 6 5 3 2 2 2 2 4 6 6 5 4 4 4 7 9 11 12 14 15 17 18 19 19 19 19 19 20 21 21 22 21 21 20 20 20 20 19 18 18 18 19 20 20 19
88 87 86 86 87 87 87 85 82 81 80 75 70 67 66 64 62 62 62 58 55 53 52 51 49 47 46 44 41 38 38 39 38 37 37 37 36 34 31 30 29 27 26 25 22 20 18 15 13 12 11 11 10 9 8 7 6 4 4 3 2 2 3 3 3 3 4 6 7 9 10 12 13 14 15 16 17 17 17 18 19 19 20 20 20 19 19 19 19 19 18 17 16 16 17 17 18
89 88 87 87 87 86 85 84 83 82 81 78 73 69 67 65 64 64 62 59 57 56 54 52 50 49 47 46 43 42 41 41 40 39 39 37 35 35 33 31 30 29 28 27 25 23 21 19 17 16 15 14 14 13 12 12 11 10 9 8 6 5 4 2 0 0 1 2 3 4 6 8 9 10 11 12 14 14 15 15 15 16 17 18 18 18 18 18 18 17 17 16 15 14 14 14 14
Wind_Direction
42 42 11 8 357 9 35 27 19 17 25 21 356 358 4 6 13 12 13 16 17 18 17 20 22 24 26 23 27 32 35 50 56 50 63 77 81 85 86 90 94 94 95 93 97 95 86 82 95 194 224 232 234 239 245 240 232 231 233 237 242 253 268 278 285 292 302 313 316 310 310 311 306 295 294 302 296 286 284 287 293 297 298 299 301 304 305 304 304 309 307 302 297 290 288 295 300
62 36 9 15 1 10 32 26 20 12 12 11 351 356 3 10 15 13 14 16 18 20 19 20 22 24 27 25 27 33 36 44 55 49 57 77 83 86 88 88 88 88 91 91 91 87 78 70 67 69 80 120 201 220 229 229 226 228 232 238 244 253 266 279 293 302 315 330 336 327 328 320 298 287 292 296 294 298 301 297 293 294 294 296 298 300 302 301 303 307 306 301 298 294 292 295 297
215 27 3 15 10 17 35 25 19 10 4 359 349 356 5 14 17 14 15 17 18 20 21 21 22 24 27 27 27 34 38 41 53 54 55 76 84 87 89 88 88 88 89 89 87 82 76 71 69 68 70 75 84 111 161 195 212 222 230 234 239 248 259 275 292 309 346 17 33 347 325 305 279 281 283 284 288 294 296 293 291 291 291 291 291 294 295 294 297 300 301 300 298 296 295 295 295
223 224 19 20 10 22 37 21 13 5 357 351 352 359 9 17 19 15 16 18 19 21 21 21 23 24 27 28 29 34 39 40 49 58 59 75 88 90 92 92 91 91 90 88 86 80 76 72 72 72 73 74 76 81 89 101 123 149 172 188 199 214 232 242 147 70 63 62 75 266 269 264 266 273 277 287 300 297 287 285 288 291 292 292 290 291 290 291 294 293 294 297 297 297 296 294 291
228 224 42 17 355 9 29 20 13 3 351 345 351 1 13 20 21 17 16 19 20 23 23 22 23 24 26 29 31 35 40 40 45 59 66 76 91 96 96 96 94 93 91 87 83 78 75 73 72 74 74 74 75 76 78 82 87 93 99 105 112 118 118 112 109 96 97 132 200 236 251 257 265 273 286 304 313 309 300 297 299 301 301 299 289 280 284 290 290 287 291 296 296 291 287 288 290
215 214 205 351 337 346 7 17 13 5 352 341 350 3 17 22 21 19 17 20 21 24 24 22 23 24 25 29 33 36 40 41 45 57 67 76 92 101 100 97 93 93 92 87 81 75 71 69 67 68 69 69 69 70 70 70 73 77 82 89 93 98 99 97 101 114 133 173 208 235 253 261 271 288 302 305 299 299 300 302 304 303 299 297 287 280 284 289 288 288 290 290 288 285 283 286 292
201 219 202 18 327 326 344 10 12 13 4 350 351 0 19 24 21 21 19 21 22 24 25 23 23 23 24 28 33 35 39 42 46 56 67 74 89 101 101 94 90 91 91 85 77 71 69 69 67 65 64 63 63 63 64 63 63 66 74 86 90 93 93 84 97 187 184 202 224 238 253 262 275 293 297 280 277 280 290 299 299 297 292 289 285 284 289 289 285 280 280 281 286 291 293 295 297
201 226 193 147 293 300 329 3 3 7 11 7 358 356 17 23 18 21 22 23 24 24 25 24 23 23 23 26 32 34 37 44 47 56 67 74 84 92 91 88 87 87 83 78 72 69 70 72 69 65 61 58 58 58 61 58 55 57 67 80 81 83 88 92 107 264 213 227 235 232 245 258 269 273 262 266 280 287 301 308 305 303 300 293 285 280 281 276 271 271 281 290 295 298 298 298 296
192 204 206 198 284 313 329 352 354 3 10 15 9 358 11 17 16 21 22 23 23 24 26 25 23 23 23 24 31 33 35 45 48 56 67 73 78 82 82 82 81 77 71 68 64 61 59 57 52 48 46 45 45 47 50 47 43 47 62 73 72 71 73 88 137 286 251 246 244 241 251 256 262 258 255 278 295 298 306 309 305 305 304 299 292 284 277 270 270 275 285 292 296 297 295 297 293
193 195 204 175 9 355 341 344 359 6 6 9 11 5 8 11 15 21 22 23 22 23 25 26 24 24 24 23 29 33 35 44 48 55 66 71 75 75 76 75 73 68 61 56 50 46 41 37 33 30 27 25 24 28 31 28 29 37 51 57 57 61 60 81 159 255 263 265 261 270 274 255 253 251 263 292 298 300 304 306 305 302 300 297 294 290 284 279 278 279 284 288 291 291 289 294 287
205 200 163 91 340 345 335 342 14 3 356 9 6 7 6 7 11 18 22 22 21 22 25 26 26 26 25 22 28 32 34 42 46 53 64 70 73 73 71 70 66 60 52 46 41 37 34 30 27 22 13 9 11 16 18 18 23 31 37 40 45 53 59 92 174 242 270 280 276 279 273 254 252 251 276 296 297 300 304 306 305 301 299 297 295 293 290 287 285 286 288 288 287 285 284 286 277
205 196 149 125 232 305 322 332 25 345 326 360 4 5 358 359 5 11 21 22 20 21 24 27 27 27 26 23 26 31 34 38 43 51 63 69 72 73 72 68 63 56 49 45 41 36 33 28 22 17 7 7 19 23 22 24 28 32 38 44 42 44 62 98 158 220 263 275 268 260 256 256 257 265 291 300 297 302 304 305 304 300 298 297 297 295 293 291 289 288 287 283 280 279 276 271 260
208 207 178 151 194 262 310 320 17 266 268 313 358 6 345 345 356 6 21 22 18 20 23 26 28 28 26 25 26 30 33 35 40 48 59 67 70 71 70 66 60 53 48 45 43 37 31 26 20 18 17 22 33 35 38 38 36 39 45 46 35 41 58 77 131 195 235 248 262 273 271 271 275 286 302 299 297 301 302 303 301 299 297 297 297 294 293 289 287 284 279 276 272 270 264 246 230
212 216 209 182 202 207 235 293 262 240 274 312 344 356 326 334 346 3 22 22 18 20 23 25 27 29 27 26 25 29 32 33 36 42 53 61 64 65 65 60 50 41 39 42 41 35 30 27 27 28 31 34 41 45 49 47 37 37 44 44 36 41 44 46 79 155 196 227 290 302 294 298 302 300 299 295 299 301 301 301 299 299 298 297 296 293 291 287 285 279 274 269 263 255 233 209 198
214 213 212 213 234 213 197 253 247 245 283 317 339 349 324 330 340 2 23 22 19 19 22 24 27 29 29 26 26 28 31 31 33 38 47 54 57 57 55 48 36 32 35 40 37 35 35 37 39 40 41 43 50 54 57 58 44 37 44 46 44 41 39 47 51 56 74 67 332 306 297 304 305 300 300 302 304 304 304 304 303 302 301 300 297 294 291 287 282 273 263 246 221 191 180 178 175
215 209 203 198 235 226 199 221 239 252 274 300 333 333 309 322 338 1 22 23 20 20 21 23 26 29 30 27 26 27 30 31 31 36 43 49 51 50 47 40 34 33 37 40 38 40 43 46 47 48 49 51 57 60 62 65 53 44 49 51 52 51 50 55 54 52 58 63 58 339 320 320 318 319 319 317 316 316 318 317 315 314 314 312 311 314 316 313 231 172 152 145 141 143 151 155 153
215 209 206 204 215 224 202 220 248 257 253 262 304 303 310 330 342 355 20 22 19 21 21 22 25 29 30 28 26 27 29 30 31 34 39 44 48 48 46 45 41 39 40 43 44 44 46 48 50 51 53 54 57 62 66 68 62 56 56 58 59 57 53 51 54 54 56 63 57 30 13 4 357 354 349 344 342 338 338 337 343 360 24 50 66 77 88 97 105 111 114 121 129 135 135 132 128
216 211 210 206 194 201 201 220 244 249 251 258 295 307 318 339 342 351 17 21 19 24 23 21 24 28 31 30 27 27 28 30 31 33 36 40 46 50 49 49 47 45 46 48 47 46 46 47 49 51 54 55 57 59 64 67 66 65 64 66 65 57 53 50 53 59 63 64 48 38 32 32 32 26 20 16 9 7 11 19 40 61 72 77 79 84 90 95 100 106 110 114 118 120 119 118 115
217 213 211 204 194 196 197 213 234 245 257 262 265 293 306 325 340 348 10 19 19 26 26 22 24 28 31 30 28 27 28 31 31 32 34 37 45 51 50 49 49 49 49 49 47 47 47 47 48 51 52 54 55 57 59 61 61 63 64 68 65 60 58 53 56 62 65 59 47 40 40 44 42 39 41 39 37 44 49 54 61 69 76 80 82 83 88 93 96 99 102 105 106 107 108 109 104
218 215 212 209 208 206 196 209 228 234 245 249 256 288 299 309 331 341 2 20 19 26 29 25 24 27 30 31 30 28 28 31 32 32 33 36 43 50 49 49 51 51 50 49 49 49 48 47 48 50 52 53 54 55 56 56 56 58 61 63 63 62 59 55 56 57 58 55 49 44 47 51 47 48 53 53 58 64 62 63 67 70 74 79 83 82 85 90 92 92 93 96 99 101 103 103 104
219 216 215 213 216 218 210 211 219 221 226 238 267 289 280 269 299 332 356 19 20 25 31 29 25 26 30 31 31 29 29 32 32 32 32 36 42 48 49 50 51 51 51 51 50 50 50 49 48 49 51 52 52 53 54 54 54 54 56 58 57 58 57 55 54 55 57 57 52 50 54 54 51 54 57 60 66 66 65 67 70 71 71 76 81 82 83 86 89 90 92 95 98 99 100 101 102
219 218 218 215 215 223 226 224 225 222 218 225 244 254 242 235 257 324 351 14 21 24 30 33 27 26 30 31 32 31 30 32 33 32 32 35 41 46 49 49 50 51 52 51 50 51 51 49 49 49 51 52 52 53 54 53 51 52 52 53 53 53 53 53 54 56 59 59 56 54 56 54 53 59 61 65 66 65 68 71 73 74 72 75 79 82 85 87 91 93 96 97 98 98 97 95 92
218 218 219 217 216 223 228 234 234 218 208 220 227 222 213 210 213 317 345 4 20 24 29 35 30 26 29 31 32 32 30 32 33 33 32 35 40 45 47 48 48 50 51 50 49 50 50 50 50 49 49 51 52 53 54 53 51 51 51 50 50 51 52 52 53 57 60 59 57 57 58 57 57 61 65 66 66 67 71 75 76 75 75 80 83 86 89 92 94 96 97 97 96 93 89 85 81
217 218 219 218 219 223 225 229 225 205 199 218 229 218 203 198 197 307 337 350 14 27 29 34 32 28 30 32 32 32 31 32 34 34 33 35 39 43 46 46 47 49 50 49 48 49 50 51 50 48 48 49 51 53 53 52 52 51 50 50 49 50 51 51 52 56 58 58 58 57 59 60 60 62 64 65 66 68 72 76 77 76 79 83 85 89 92 94 94 95 95 93 90 86 83 80 76
216 217 218 218 219 222 223 222 215 202 196 208 221 210 196 198 215 281 325 333 360 27 30 32 33 29 30 32 32 33 32 32 34 34 33 35 39 43 46 45 46 48 49 48 48 48 50 50 50 47 46 48 50 52 52 51 51 51 50 50 50 51 51 51 52 54 57 57 58 57 59 61 62 63 65 66 67 68 71 74 75 76 79 82 85 88 90 91 92 91 91 89 87 84 80 77 74
215 215 216 217 218 219 218 214 211 204 197 202 212 201 186 192 215 260 305 315 339 20 32 32 31 29 31 33 33 34 34 34 35 35 33 35 39 43 46 46 46 48 49 49 48 49 50 50 49 47 46 48 50 51 52 50 50 50 51 51 52 52 52 52 52 54 57 58 59 60 61 63 64 65 68 69 69 68 68 71 73 76 79 82 84 85 87 88 89 89 89 89 87 83 79 76 73
215 214 215 216 215 216 213 208 207 206 204 207 207 199 191 196 207 237 273 294 318 4 30 31 29 27 31 35 34 35 36 36 37 38 36 34 39 43 46 47 47 49 50 49 50 51 50 50 50 49 48 49 50 51 51 50 50 50 51 52 52 53 53 52 53 56 59 60 62 64 64 66 68 69 72 73 71 68 65 66 71 74 77 80 82 83 85 87 88 89 90 90 87 83 78 75 73
214 214 214 215 213 213 214 209 208 216 216 208 197 196 205 209 210 221 244 270 294 343 27 29 25 25 30 36 36 35 37 38 38 40 38 36 38 43 46 48 49 50 52 51 52 53 52 51 51 50 49 50 51 52 52 50 50 50 51 52 53 54 54 53 54 57 61 63 65 66 67 70 73 73 75 75 73 70 67 66 68 71 75 78 80 82 84 86 87 87 88 89 87 83 78 72 69
213 213 213 214 211 212 214 212 215 226 223 207 189 194 206 214 216 220 232 252 270 311 20 23 19 23 29 36 38 36 38 40 40 41 41 39 39 42 46 49 51 52 53 53 53 55 53 51 51 51 50 50 52 53 53 53 52 52 51 51 51 53 55 55 55 58 61 64 66 66 69 73 75 75 76 76 75 72 70 70 71 72 74 77 79 81 83 84 85 85 85 85 84 82 77 71 65
212 212 213 213 210 210 211 212 215 217 216 208 197 198 204 208 214 221 228 239 253 279 8 16 14 18 26 35 40 38 37 40 42 42 42 42 42 43 45 49 52 53 54 54 54 55 53 51 52 52 52 51 52 54 54 55 55 55 53 52 51 53 55 55 56 59 61 63 65 66 68 72 76 76 77 77 77 74 73 75 77 76 76 78 80 81 82 82 83 85 84 84 84 81 78 73 65
211 210 212 212 209 209 207 207 211 208 208 208 206 206 205 205 210 220 225 229 240 253 317 10 6 12 23 33 42 41 38 39 43 44 44 43 44 45 45 49 53 56 56 56 56 55 53 52 53 53 53 53 54 55 55 56 57 57 56 55 54 53 55 56 57 59 61 62 64 66 68 71 76 79 80 78 78 77 75 76 79 80 79 79 80 81 82 82 83 84 85 86 86 83 79 73 64
210 209 211 211 209 207 203 202 206 204 204 206 209 208 204 203 207 217 221 220 229 239 260 349 353 2 20 29 41 45 41 39 42 45 45 44 45 46 47 49 53 57 58 58 57 56 54 54 55 55 55 54 55 55 55 56 58 58 58 57 57 56 57 58 59 61 62 64 66 68 71 74 77 80 81 80 80 79 78 78 79 81 81 79 80 81 82 84 85 84 85 85 84 82 77 71 64
209 208 209 210 208 205 200 201 203 201 200 202 206 206 204 204 205 211 213 212 223 230 242 289 327 344 16 27 37 47 45 41 43 46 48 47 46 47 49 52 55 59 60 60 59 58 57 57 57 57 56 56 56 56 55 56 57 58 58 57 58 58 58 58 60 61 64 66 69 71 73 77 80 81 82 82 83 83 82 81 81 81 80 80 80 81 82 83 83 83 83 81 79 75 69 65 61
210 207 208 209 208 203 198 201 202 197 199 200 203 205 205 205 203 207 209 207 217 223 230 253 281 305 4 27 34 47 49 44 43 47 50 50 49 49 51 54 57 60 62 62 61 61 60 60 60 59 57 57 56 56 55 55 57 57 56 56 56 57 58 58 58 60 62 65 68 71 73 76 81 84 85 83 82 82 83 83 82 81 80 81 81 82 81 80 81 83 83 80 74 68 63 61 59
210 208 208 207 207 204 198 201 202 196 198 200 203 207 206 206 203 206 213 211 213 218 224 242 264 273 308 21 33 48 54 49 43 46 51 53 53 52 53 56 59 61 63 63 63 63 62 63 63 60 58 57 56 55 55 55 56 56 56 54 54 55 57 57 58 58 61 64 66 68 70 73 78 83 84 82 79 78 79 82 84 83 80 79 79 78 77 78 80 81 80 77 71 66 64 61 57
210 208 208 207 206 204 200 201 202 198 199 198 202 208 205 204 203 205 215 217 212 215 218 233 254 257 259 290 43 49 58 57 48 46 51 55 57 57 57 57 61 63 64 64 64 64 64 64 64 62 60 58 56 55 54 54 54 55 55 54 54 55 56 57 58 58 59 62 64 66 67 70 73 77 78 78 77 75 75 78 81 82 80 78 77 75 75 75 75 74 73 70 66 63 62 60 57
209 208 208 207 206 205 201 201 201 200 202 200 200 205 203 203 206 207 214 216 213 213 215 224 240 245 241 230 140 57 64 65 58 50 51 58 60 62 61 61 63 65 65 64 63 63 63 63 63 62 60 59 57 55 54 54 53 54 54 53 54 55 56 57 58 58 59 60 62 63 64 65 67 70 71 73 74 74 74 75 77 78 78 78 77 76 74 72 69 66 65 64 62 61 62 61 59
209 207 207 207 206 205 203 201 201 200 203 206 204 204 204 205 206 205 207 213 214 212 214 219 228 234 232 218 194 129 77 73 69 60 53 59 64 64 66 66 66 66 66 65 64 63 62 62 63 62 60 59 57 55 55 54 54 54 54 54 54 54 56 57 58 58 58 59 60 62 62 62 64 66 67 68 70 72 74 75 75 75 76 76 76 75 74 71 67 64 64 66 66 65 64 62 60
208 207 207 207 206 206 204 202 202 201 202 208 208 205 205 205 203 201 205 213 215 211 212 218 222 225 222 212 198 180 130 86 80 71 59 60 66 67 68 70 69 68 67 65 64 62 61 61 61 62 61 60 58 57 55 55 55 55 55 55 54 55 55 56 57 58 58 59 59 61 61 61 61 63 64 66 67 70 72 74 74 73 72 71 73 75 76 73 69 69 70 71 71 70 68 64 62
207 207 207 206 206 206 205 203 202 201 202 205 207 205 203 203 201 201 207 214 213 210 211 218 223 221 215 211 203 190 165 117 95 84 72 62 68 70 69 70 71 70 68 65 64 64 62 62 61 62 62 61 60 59 58 57 57 58 57 57 56 56 56 55 56 57 58 59 60 60 61 61 60 61 61 62 64 66 69 72 73 72 70 70 71 74 77 77 75 75 77 77 75 73 68 65 63
207 206 206 206 206 206 205 204 202 200 200 202 205 205 205 205 204 204 209 214 212 209 211 216 220 217 212 211 207 195 174 148 118 97 85 70 68 75 72 70 72 72 72 70 67 66 65 64 62 62 63 63 62 61 61 59 59 60 60 59 59 58 58 57 56 57 58 59 60 61 61 61 61 61 61 62 62 64 67 69 71 71 71 71 70 73 78 82 82 81 80 78 75 70 66 65 65
206 206 206 206 206 206 206 205 202 199 198 202 206 206 206 206 206 207 210 214 212 210 212 214 213 213 212 210 210 203 184 167 158 118 101 85 75 79 78 73 70 72 74 75 73 70 68 67 65 63 63 62 62 62 62 62 61 61 61 61 61 61 60 60 59 58 59 59 60 61 61 62 62 62 62 63 64 65 66 68 70 70 71 73 74 76 80 82 83 82 79 75 72 68 68 69 69
206 205 205 206 205 206 206 205 203 199 198 202 208 206 203 204 205 207 211 213 212 210 213 213 208 209 211 208 208 205 194 180 179 168 128 105 87 84 87 80 74 70 72 76 77 74 71 69 67 64 63 61 61 61 62 63 62 62 61 62 62 63 62 62 62 61 61 60 60 61 61 62 62 63 63 64 65 66 68 70 71 72 73 75 79 80 79 78 78 78 77 73 72 72 73 73 74
206 205 204 205 205 206 206 205 202 199 198 201 206 205 202 204 205 207 210 211 210 210 213 212 206 206 209 209 207 203 199 192 186 193 175 134 106 94 94 93 84 74 70 72 75 76 74 71 69 66 63 61 60 61 62 63 63 62 61 61 61 62 63 63 64 63 63 62 61 61 61 61 62 63 64 65 66 67 68 70 73 75 77 80 81 80 78 76 75 75 75 74 74 75 77 77 79
205 204 204 205 205 205 206 206 203 199 198 198 200 201 201 204 207 208 209 210 209 209 211 210 206 205 208 211 209 201 198 199 194 196 198 171 135 110 102 100 99 85 72 69 69 74 74 73 71 69 66 65 64 62 62 62 62 61 61 61 61 61 62 63 63 63 63 63 62 61 60 61 61 62 63 64 65 66 68 70 72 76 79 81 81 79 78 78 78 76 74 74 74 76 78 81 84
205 204 204 204 205 205 205 206 203 200 199 198 196 196 197 200 206 209 207 209 211 211 210 210 209 207 209 212 213 204 198 201 200 198 202 192 168 140 118 108 106 102 85 73 67 67 72 72 72 72 70 70 68 66 65 64 62 61 61 61 60 60 60 61 61 61 62 62 63 62 61 60 60 61 61 62 63 65 66 68 70 73 76 78 77 77 78 79 79 77 74 73 74 76 80 85 89
206 204 204 204 204 205 205 206 204 201 200 200 197 194 194 196 203 206 205 206 210 208 209 213 212 210 209 212 216 209 199 202 203 201 204 199 187 172 146 125 114 113 109 89 75 66 66 67 69 72 72 73 72 70 68 66 65 63 62 61 60 60 60 60 61 61 61 61 61 63 62 61 60 60 60 61 61 62 63 65 66 69 71 73 74 76 77 78 78 77 76 76 77 78 82 89 94
206 205 204 204 204 204 205 205 205 202 201 202 201 198 197 199 203 204 203 206 207 205 210 218 217 213 211 211 216 212 202 203 206 204 205 202 193 188 176 154 134 124 127 115 94 78 67 63 63 68 72 75 76 74 71 69 68 67 65 63 61 61 60 61 61 61 61 61 61 62 62 61 60 60 59 59 60 60 61 62 63 65 67 70 72 74 76 77 77 77 76 77 79 82 87 93 98
206 204 203 204 203 204 205 205 205 203 202 203 204 204 202 202 204 205 205 206 208 208 212 218 219 215 213 213 214 212 206 206 209 209 208 205 196 192 192 179 159 140 138 139 121 95 73 59 55 61 69 76 80 78 76 74 72 70 67 65 63 62 61 62 62 63 62 62 63 63 62 61 60 60 59 59 59 59 59 60 61 63 65 67 70 72 74 76 76 76 76 78 82 87 92 97 102
206 205 203 203 202 203 204 205 204 203 202 202 203 204 202 200 203 206 207 208 209 210 211 214 216 213 213 214 213 212 211 209 212 212 210 208 202 197 197 191 177 161 150 152 149 125 79 57 55 58 64 73 79 80 79 78 76 72 68 67 65 64 63 63 64 64 64 64 64 64 63 63 62 61 60 59 58 58 58 58 59 60 62 65 69 71 73 75 75 76 77 80 85 90 95 100 104
206 205 204 202 201 201 203 204 203 203 201 199 199 200 198 197 201 206 209 210 211 212 211 212 214 211 211 213 212 210 211 210 212 213 210 209 206 201 199 197 190 180 171 166 164 161 129 74 67 65 66 70 74 75 78 79 79 74 70 67 66 64 64 65 66 65 65 65 65 64 64 64 64 63 62 60 58 57 56 57 57 58 59 62 65 69 72 74 76 77 79 83 87 91 96 101 104
204 205 204 202 201 200 201 203 203 202 201 199 199 198 196 197 200 204 209 210 211 213 212 211 213 211 210 212 212 211 209 208 210 212 210 208 208 205 200 199 197 191 187 185 181 177 173 153 88 78 78 75 70 70 72 73 75 76 74 69 67 66 64 63 65 66 67 67 66 66 65 64 64 64 63 61 59 58 56 55 56 56 57 58 61 65 69 73 77 80 82 86 90 93 95 100 105
203 204 205 203 201 200 200 202 202 202 201 200 200 200 198 198 200 204 208 209 210 212 212 210 212 212 211 211 213 213 212 208 209 213 212 209 208 208 203 200 201 199 196 197 197 194 192 195 191 116 91 85 79 72 70 67 66 70 71 62 64 71 70 65 63 64 67 68 68 68 66 64 63 62 63 62 60 58 56 54 54 55 56 57 59 62 66 72 78 83 86 89 92 94 96 100 106
203 204 204 203 202 200 200 201 202 201 200 200 201 201 201 201 202 206 209 209 210 212 212 210 210 212 214 214 213 214 215 212 210 213 216 213 209 209 206 202 202 202 203 204 205 203 200 202 206 208 181 110 93 83 79 76 69 69 67 54 55 75 82 75 69 65 66 66 66 67 67 65 63 61 62 62 60 58 56 54 53 52 53 55 57 61 65 71 79 85 88 91 94 96 98 101 107
203 203 203 203 203 201 200 200 201 200 200 199 200 200 202 202 203 207 210 209 208 209 209 209 209 212 215 216 214 213 217 217 211 212 218 217 213 211 209 205 203 204 207 208 209 208 205 205 209 215 217 214 192 125 99 89 81 77 71 55 54 76 94 90 82 73 69 67 63 64 64 64 63 61 59 60 60 58 55 54 52 51 50 52 56 60 65 70 77 84 89 93 97 100 102 106 110
203 203 202 203 203 202 200 200 201 200 199 199 197 198 201 201 202 207 210 208 205 206 206 207 209 211 214 215 215 214 217 219 213 210 214 217 215 213 212 208 205 207 210 211 212 211 210 209 212 218 222 227 231 228 217 177 121 99 76 44 47 65 77 79 83 82 86 81 69 63 62 61 62 62 59 57 57 56 54 53 51 49 47 49 52 58 63 68 73 79 86 93 101 105 107 109 114
202 203 202 202 203 202 201 200 200 200 200 199 197 197 200 201 201 205 208 206 203 203 205 206 208 210 213 215 215 215 218 220 216 211 211 214 216 216 215 212 209 209 212 214 214 215 216 217 220 225 228 231 235 236 240 239 234 234 244 264 305 353 32 55 65 74 107 105 84 69 65 61 60 62 60 58 55 53 53 52 51 48 45 44 47 52 59 66 72 77 83 91 100 108 111 112 114
202 202 202 203 203 203 202 201 201 200 200 200 198 198 200 201 201 204 206 203 202 203 204 205 205 207 211 213 214 214 216 218 217 213 211 212 216 220 219 216 213 213 216 217 217 217 219 221 223 228 231 233 235 236 238 242 244 245 246 248 256 267 278 283 281 337 152 136 100 72 68 62 60 61 60 59 57 54 51 50 50 49 45 42 41 44 50 59 67 75 82 89 96 103 108 111 114